Retour au catalogue

STARLINK-37553

ActifCommunicationsVLEO
NORAD 69820·PAYLOAD·🇺🇸 United States

Lancé Jul 5, 2026 depuis Cape Canaveral Space Force Station

Loading…

Prochains Passages (prochaines 24 heures)

TLE

FraisSource: CelesTrak SupGP

Époque: Sep 14, 2026, 21:26 UTC

1 69820C 26154B   26257.89354167 -.00008630  00000+0 -25500-3 0  2578
2 69820  53.1583 357.7526 0001233  79.7825 148.6744 15.34392018    15

Suivez STARLINK-37553 en temps réel avec AllMySat

Download on the App Store